Погода в Выксе

Погода в Выксе : погода сейчас, прогноз погоды и архив. Всё, что Вы хотите узнать о погоде в Выксе!

Хотите узнать прогноз погоды в Выксе? Тогда Вам сюда: Погода в Выксе

Поиск расширенной информации на нашем сайте:

Другие новости

Новости СМИ2

Главная страница сайта

Новости сайта

03.07.2017

Напоминаем, что на нашем специализированном сайте Метеоцентр.Азия вы можете получить высокодетализированные автоматические прогнозы погоды по пунктам России, СНГ и мира в авиационном формате (включающие направление и скорость ветра, видимость, явления погоды, количество и форму облачности, нижнюю и верхнюю границу облачности).


Погода в Выксе - сегодня

Время (UTC), дата Ветер
(°,м/с) 
Видим.   Явления Облачность Т
(°С)
Тd
(°С)
f(%) Тe
(°С)
Pmin
(гПа)
dP
(гПа)
Po
(мм)
O2
(г/м3)
Тmin Tmax R s Состояние
почвы
15 07.07.18 180 (Ю) 1-2{04}  10 км  {гроза, ливн. осадки}  6/0 средняя, верхняя 
[Ac trans|Ci fib]
+21.7 +14.6 64 +30  1002.8  -0.2  742  274    +23.7     
03 08.07.18 тихо () -0{03}  10 км    9/0 средняя 
[Ac trans]
+15.5 +14.4 93 +23  1002.1  742  280  +14.8        влажная 
15 08.07.18 190 (Ю) 1-3{06}  10 км    8/0 средняя 
[As op]
+21.9 +14 61 +29  1002  742  274    +24.5  0.8     
03 09.07.18 270 (З) 3-4{05}  4000 м  дымка  10/0 средняя 
[As op]
+15 +13.9 93 +22  1003.9  0.3  743  281  +14.9        влажная 
15 09.07.18 290 (З) 4-6{09}  10 км    8/6 600 м верхняя 
[Cu med, cong|Cs]
+21.1 +13 60 +27  1006.6  1.2  745  276    +22     
21 09.07.18 270 (З) 2-4{06}  10 км    ясно 
+15.8 +14.2 90 +24  1008.5  0.9  746  281           
03 10.07.18 290 (З) 2-4{05}  2000 м  дымка  9/9 300 м 
[Sc]
+15.8 +15 95 +26  1010  0.7  747  282  +14.9        влажная 
15 10.07.18 320 (СЗ) 4-6{09}  10 км    8/4 600 м кучево-дожд., средняя 
[Cb cap|Ac trans]
+21.9 +16.4 71 +33  1012  749  276    +22.3     
03 11.07.18 300 (СЗ) 2-3{03}  10 км    10/0 средняя 
[As op]
+17.8 +16.6 93 +31  1012.8  750  280  +16.4        влажная 
15 11.07.18 040 (СВ) 3-6{06}  10 км    6/6 600 м 
[Cu med, cong]
+22.4 +16.7 70 +34  1013.6  750  276    +23     
03 12.07.18 010 (С) 2-3{03}  10 км  {туман}  3/0 средняя 
[Ac trans]
+16.1 +15.2 94 +26  1014.2  0.5  751  282  +14.6        влажная 
15 12.07.18 010 (С) 3-5{08}  10 км    8/8 600 м 
[Cu med, cong]
+24.2 +12.8 49 +29  1012.2  -0.2  749  275    +25.7       
21 12.07.18 310 (СЗ) 2-2{02}  10 км    ясно 
+15.8 +13.8 88 +24  1012.2  749  283           
03 13.07.18 340 (С) 2-3{03}  4000 м  дымка  10/0 средняя 
[As op]
+15.7 +14.5 93 +24  1011.7  -0.5  749  282  +14.3        влажная 
15 13.07.18 010 (С) 2-4{06}  10 км    8/8 1000 м 
[Cu hum]
+24.9 +13.9 50 +32  1009.6  -0.6  747  273    +25.2       
21 13.07.18 тихо () -0{02}  10 км    ясно 
+15.8 +14.6 93 +24  1010.2  748  282           
03 14.07.18 тихо () -0{02}  0500 м  туман  ясно 
+16.7 +15.9 95 +27  1010  -0.4  747  280  +14.3        сухая 
15 14.07.18 080 (В) 2-3{04}  10 км    8/4 1000 м верхняя 
[Cu med, cong|Ci fib]
+27.1 +13 42 +33  1006.9  -0.9  746  271    +28.1       
03 15.07.18 тихо () -0{01}  10 км    6/0 средняя, верхняя 
[Ac trans|Ci fib]
+17.1 +16.1 94 +28  1008.7  0.4  747  280  +16.7        сухая 
15 15.07.18 080 (В) 2-4{06}  10 км    8/6 1000 м верхняя 
[Cu med, cong|Ci fib]
+27.7 +13.3 41 +34  1007.9  -0.2  746  270    +30       
03 16.07.18 360 (С) 1-2{02}  10 км    ясно 
+20.3 +17.5 84 +34  1009.3  747  276  +17.4        сухая 
06 16.07.18 100 (В) 3-6{06}  10 км    ясно 
+26.7 +17.5 57 +40  1008.4  -0.5  747  270           
15 16.07.18 100 (В) 3-7{08}  10 км    3/3 1000 м 
[Cu hum]
+30.2 +14.2 38 +38  1007.4  -0.5  746  268    +31.1       
21 16.07.18 060 (СВ) 2-4{06}  10 км    ясно 
+22.6 +17.3 72 +36  1007.6  -1  746  274           
03 17.07.18 040 (СВ) 3-4{05}  10 км    ясно 
+21.4 +18.2 82 +36  1007.4  746  274  +20.3        сухая 
Время (UTC), дата Ветер
(°,м/с) 
Видим.   Явления Облачность Т
(°С)
Тd
(°С)
f(%) Тe
(°С)
Pmin
(гПа)
dP
(гПа)
Po
(мм)
O2
(г/м3)
Тmin Tmax R s Состояние
почвы

Для получения пояснительной информации подведите курсор к названию столбца.

ПОГОДА в Выксе - архив

Всё, что Вы хотите узнать о погоде в Выксе - удобно и подробно!

Выберите нужную дату (начиная с 1 января 2015* года) и нажмите кнопку "Найти".
Будут отображены архивные сводки погоды по пункту Выкса, начиная с указанной даты.


Отображать данные в формате CSV (для использования в таблицах Excel)


Внимание! Наш архив погоды предназначен исключительно для личного некоммерческого использования в познавательных целях. Если Вам необходимы официальные справки о состоянии погоды (для производственных, юридических, коммерческих и т.п. целей), обращайтесь в органы Росгидромета.

*Примечание: данная дата относится к архиву по метеостанциям СССР (Россия, СНГ, Балтия).
Архив по метеостанциям Зарубежной Европы и Азии (кроме Китая) хранится 10 дней, по другим регионам земного шара (Китай, Африка, Америка, Австралия, Океания) - 1 день.

Выкса - район местоположения метеостанции


Название, широта, долгота, высота метеостанции:
Выкса 55.3°ш. 42.1°д. 114 м над ур. моря [Российская Федерация]

Дополнительная информация

В oтличие oт бoльшинства пoгoдных сайтoв мы публикуем пoдрoбную метеoинфoрмацию в детальнoм прoфессиoнальнoм фoрмате.

Характеристики температуры и влажнoсти вoздуха измеряются на высoте 2 м в тени вдали oт зданий и деревьев.
Скoрoсть ветра измеряется на высoте 10 м (на урoвне рoста челoвека скoрoсть ветра ниже в 1.5-2 раза). Если метеoстанция нахoдится в гoрoде или в лесу, тo скoрoсть ветра занижена на 2-4 м/с пo сравнению с oткрытым местoм. Скoрoсть ветра над акватoриями крупных рек и oзёр, а также на вершинах хoлмoв на 2-5 м/с выше, чем в oбычных услoвиях.
Атмoсфернoе давление в разных тoчках местнoсти мoжет значительнo oтличаться oт давления на метеoстанции, в зависимoсти oт услoвий рельефа (при пoдъёме на 10 м давление пoнижается примернo на 1 мм рт.ст.).